Location: Hamilton
(37.7830°S, 175.2830°E)
Time: 02:18:19
(UTC+12:00)

Cosmos 1980 Rocket - Pass Details

Date: 24 January 2019
Orbit: 828 x 851 km, 71.0° (Epoch: 19 April)

Event Time Altitude Azimuth Distance (km) Brightness Sun altitude
Rises 21:00:31 0° 334° (NNW) 3,409 5.3 -4.7°
Reaches altitude 10° 21:02:58 10° 332° (NNW) 2,480 4.6 -5.2°
Maximum altitude 21:08:40 73° 247° (WSW) 900 2.6 -6.1°
Drops below altitude 10° 21:14:25 10° 162° (SSE) 2,502 4.8 -7.1°
Sets 21:16:54 0° 159° (SSE) 3,441 5.5 -7.5°
